LiveATC.Net - Listen to live air traffic control over the Internet!


ICAO: KRST  IATA: RST   Airport: Rochester International Airport
City: Rochester   State/Province: Minnesota
Country: United States   Continent: North America
KRST METAR Weather: KRST 271854Z 24004KT 10SM BKN020 OVC100 17/13 A2982 RMK AO2 SLP099 T01720128 $
KRST ADS-B Flight Tracking  (ADSBExchange)
KRST Flight Activity (FlightAware)
KRST Airport Info   (iFlightPlanner)
KRST VFR Sectional Chart   (iFlightPlanner) 
KRST IFR Low Altitude Chart   (iFlightPlanner) 
KRST IFR High Altitude Chart   (iFlightPlanner) 

KRST Gnd/Twr/App
Feed Status: UP   Listeners: 0
Listen in your browser - HTML5 player (in browser, HTML5)
Click here to listen with your own player (launches your MP3 player)
Archive Access: KRST Gnd/Twr/App
FacilityFrequency
Rochester Approach119.800
Rochester Ground121.900
Rochester Tower118.300

NOTICE

Unauthorized use prohibited. See LiveATC.net Terms of Service


Airport/ARTCC Code
Frequency Search
(e.g., 124.400, 128.75)
Site-wide search
 


Browse Feeds
Top 50 Feeds
HF Oceanic Feeds
Coverage Map
Bad Weather Areas

LiveATC FAQ

Increase Coverage

Contact LiveATC.net
Press Inquiries

LiveATC on iPhone
LiveATC on Android

LiveATC Mobile
(Mobile browser)

ATC Audio Archives
Interesting Recordings

LiveATC Forums


Home Page
About LiveATC.net


Terms of Use
Privacy Policy

AIRMETs/SIGMETs

FAA Airport Status
NAS Status
Arrival Demand


Server Software By:
Icecast.org
Liquidsoap